Time,TemperatureF,DewpointF,PressureIn,WindDirection,WindDirectionDegrees,WindSpeedMPH,WindSpeedGustMPH,Humidity,HourlyPrecipIn,Conditions,Clouds,dailyrainin,SoftwareType,DateUTC
2013-06-27 00:11:00,61.0,61.0,29.82,ESE,115,0.0,0.0,100,0.00,,,0.00,weatherlink.com 1.10,2013-06-27 04:11:00,
2013-06-27 00:26:00,60.9,61.0,29.82,ESE,115,0.0,0.0,100,0.00,,,0.00,weatherlink.com 1.10,2013-06-27 04:26:00,
2013-06-27 00:41:00,60.8,61.0,29.81,ESE,115,0.0,0.0,100,0.00,,,0.00,weatherlink.com 1.10,2013-06-27 04:41:00,
2013-06-27 00:56:00,60.9,61.0,29.80,ESE,115,0.0,0.0,100,0.00,,,0.00,weatherlink.com 1.10,2013-06-27 04:56:00,
2013-06-27 01:11:00,60.7,61.0,29.81,ESE,115,0.0,0.0,100,0.01,,,0.01,weatherlink.com 1.10,2013-06-27 05:11:00,
2013-06-27 01:26:00,60.7,61.0,29.82,ESE,114,0.0,0.0,100,0.01,,,0.01,weatherlink.com 1.10,2013-06-27 05:26:00,
2013-06-27 01:41:00,60.8,61.0,29.81,ESE,115,0.0,0.0,100,0.01,,,0.01,weatherlink.com 1.10,2013-06-27 05:41:00,
2013-06-27 01:56:00,60.8,61.0,29.81,ESE,114,0.0,0.0,100,0.01,,,0.01,weatherlink.com 1.10,2013-06-27 05:56:00,
2013-06-27 02:11:00,60.9,61.0,29.81,ESE,115,0.0,0.0,100,0.00,,,0.01,weatherlink.com 1.10,2013-06-27 06:11:00,
2013-06-27 02:26:00,60.9,61.0,29.81,ESE,115,0.0,0.0,100,0.00,,,0.01,weatherlink.com 1.10,2013-06-27 06:26:00,
2013-06-27 02:41:00,60.9,61.0,29.80,ESE,114,0.0,0.0,100,0.00,,,0.01,weatherlink.com 1.10,2013-06-27 06:41:00,
2013-06-27 02:57:00,60.6,61.0,29.80,ESE,114,0.0,0.0,100,0.00,,,0.01,weatherlink.com 1.10,2013-06-27 06:57:00,
2013-06-27 03:12:00,60.2,60.0,29.80,ESE,114,0.0,1.0,100,0.00,,,0.01,weatherlink.com 1.10,2013-06-27 07:12:00,
2013-06-27 03:27:00,59.7,60.0,29.80,ESE,113,0.0,0.0,100,0.00,,,0.01,weatherlink.com 1.10,2013-06-27 07:27:00,
2013-06-27 03:42:00,59.3,59.0,29.79,East,96,0.0,0.0,100,0.00,,,0.01,weatherlink.com 1.10,2013-06-27 07:42:00,
2013-06-27 04:12:00,59.0,59.0,29.79,East,96,0.0,0.0,100,0.00,,,0.01,weatherlink.com 1.10,2013-06-27 08:12:00,
2013-06-27 04:27:00,58.9,59.0,29.80,East,95,0.0,0.0,100,0.00,,,0.01,weatherlink.com 1.10,2013-06-27 08:27:00,
2013-06-27 04:42:00,58.8,59.0,29.80,East,95,0.0,0.0,100,0.00,,,0.01,weatherlink.com 1.10,2013-06-27 08:42:00,
2013-06-27 04:57:00,58.6,59.0,29.81,East,94,0.0,0.0,100,0.00,,,0.01,weatherlink.com 1.10,2013-06-27 08:57:00,
2013-06-27 05:12:00,58.6,59.0,29.81,East,95,0.0,0.0,100,0.00,,,0.01,weatherlink.com 1.10,2013-06-27 09:12:00,
2013-06-27 05:27:00,58.6,59.0,29.81,East,95,0.0,0.0,100,0.01,,,0.02,weatherlink.com 1.10,2013-06-27 09:27:00,
2013-06-27 05:42:00,58.6,59.0,29.81,East,94,0.0,0.0,100,0.01,,,0.02,weatherlink.com 1.10,2013-06-27 09:42:00,
2013-06-27 05:57:00,58.6,59.0,29.82,East,95,0.0,0.0,100,0.01,,,0.02,weatherlink.com 1.10,2013-06-27 09:57:00,
2013-06-27 06:12:00,58.7,59.0,29.83,East,95,0.0,0.0,100,0.01,,,0.02,weatherlink.com 1.10,2013-06-27 10:12:00,
2013-06-27 06:26:00,58.8,59.0,29.82,East,95,0.0,0.0,100,0.00,,,0.02,weatherlink.com 1.10,2013-06-27 10:26:00,
2013-06-27 06:42:00,58.8,59.0,29.82,East,95,0.0,0.0,100,0.00,,,0.02,weatherlink.com 1.10,2013-06-27 10:42:00,
2013-06-27 06:57:00,58.8,59.0,29.82,East,95,0.0,0.0,100,0.00,,,0.02,weatherlink.com 1.10,2013-06-27 10:57:00,
2013-06-27 07:12:00,59.0,59.0,29.82,East,96,0.0,0.0,100,0.00,,,0.02,weatherlink.com 1.10,2013-06-27 11:12:00,
2013-06-27 07:27:00,59.1,59.0,29.83,East,96,0.0,0.0,100,0.00,,,0.02,weatherlink.com 1.10,2013-06-27 11:27:00,
2013-06-27 07:42:00,59.4,59.0,29.83,East,94,1.0,1.0,100,0.00,,,0.02,weatherlink.com 1.10,2013-06-27 11:42:00,
2013-06-27 07:57:00,59.1,59.0,29.83,SE,132,0.0,1.0,100,0.00,,,0.02,weatherlink.com 1.10,2013-06-27 11:57:00,
2013-06-27 08:12:00,59.0,59.0,29.83,South,170,0.0,1.0,100,0.00,,,0.02,weatherlink.com 1.10,2013-06-27 12:12:00,
2013-06-27 08:27:00,58.9,59.0,29.83,SSE,162,0.0,1.0,100,0.00,,,0.02,weatherlink.com 1.10,2013-06-27 12:27:00,
2013-06-27 08:42:00,59.0,59.0,29.83,SSW,205,0.0,2.0,100,0.00,,,0.02,weatherlink.com 1.10,2013-06-27 12:42:00,
2013-06-27 08:57:00,59.2,59.0,29.83,SSE,165,0.0,1.0,100,0.00,,,0.02,weatherlink.com 1.10,2013-06-27 12:57:00,
2013-06-27 09:12:00,59.5,60.0,29.83,SSE,165,0.0,1.0,100,0.00,,,0.02,weatherlink.com 1.10,2013-06-27 13:12:00,
2013-06-27 09:27:00,60.0,60.0,29.82,South,172,0.0,1.0,100,0.00,,,0.02,weatherlink.com 1.10,2013-06-27 13:27:00,
2013-06-27 09:42:00,60.3,60.0,29.82,SSW,211,0.0,1.0,100,0.00,,,0.02,weatherlink.com 1.10,2013-06-27 13:42:00,
2013-06-27 09:57:00,60.9,61.0,29.82,SSW,211,0.0,0.0,100,0.00,,,0.02,weatherlink.com 1.10,2013-06-27 13:57:00,
2013-06-27 10:12:00,61.3,61.0,29.82,SSE,168,0.0,2.0,100,0.00,,,0.02,weatherlink.com 1.10,2013-06-27 14:12:00,
2013-06-27 10:27:00,61.4,61.0,29.82,SSE,152,0.0,1.0,100,0.00,,,0.02,weatherlink.com 1.10,2013-06-27 14:27:00,
2013-06-27 10:42:00,61.9,62.0,29.82,SSE,153,0.0,1.0,100,0.00,,,0.02,weatherlink.com 1.10,2013-06-27 14:42:00,
2013-06-27 10:57:00,62.3,62.0,29.82,SW,219,0.0,1.0,100,0.00,,,0.02,weatherlink.com 1.10,2013-06-27 14:57:00,
2013-06-27 11:12:00,62.8,63.0,29.82,SW,218,0.0,1.0,100,0.00,,,0.02,weatherlink.com 1.10,2013-06-27 15:12:00,
2013-06-27 11:27:00,63.4,63.0,29.81,SSE,152,0.0,1.0,100,0.00,,,0.02,weatherlink.com 1.10,2013-06-27 15:27:00,
2013-06-27 11:42:00,63.9,64.0,29.82,South,169,0.0,1.0,100,0.00,,,0.02,weatherlink.com 1.10,2013-06-27 15:42:00,
2013-06-27 11:57:00,64.0,64.0,29.82,South,169,0.0,1.0,100,0.00,,,0.02,weatherlink.com 1.10,2013-06-27 15:57:00,
2013-06-27 12:12:00,64.7,65.0,29.82,South,169,0.0,0.0,100,0.00,,,0.02,weatherlink.com 1.10,2013-06-27 16:12:00,
2013-06-27 12:27:00,65.7,65.0,29.82,SSE,163,0.0,1.0,99,0.00,,,0.02,weatherlink.com 1.10,2013-06-27 16:27:00,
2013-06-27 12:42:00,66.2,66.0,29.81,South,190,0.0,1.0,98,0.00,,,0.02,weatherlink.com 1.10,2013-06-27 16:42:00,
2013-06-27 12:57:00,66.7,66.0,29.81,SSW,210,0.0,1.0,97,0.00,,,0.02,weatherlink.com 1.10,2013-06-27 16:57:00,
2013-06-27 13:12:00,67.2,66.0,29.80,SW,231,0.0,2.0,95,0.00,,,0.02,weatherlink.com 1.10,2013-06-27 17:12:00,
2013-06-27 13:27:00,67.1,66.0,29.80,SW,226,0.0,1.0,96,0.00,,,0.02,weatherlink.com 1.10,2013-06-27 17:27:00,
2013-06-27 13:42:00,67.2,66.0,29.79,SE,137,0.0,1.0,96,0.00,,,0.02,weatherlink.com 1.10,2013-06-27 17:42:00,
2013-06-27 13:57:00,67.4,66.0,29.80,SE,138,0.0,1.0,95,0.00,,,0.02,weatherlink.com 1.10,2013-06-27 17:57:00,
2013-06-27 14:13:00,67.5,66.0,29.80,SE,138,0.0,0.0,95,0.00,,,0.02,weatherlink.com 1.10,2013-06-27 18:13:00,
2013-06-27 14:27:00,67.4,66.0,29.79,SE,136,0.0,1.0,96,0.00,,,0.02,weatherlink.com 1.10,2013-06-27 18:27:00,
2013-06-27 14:42:00,67.6,67.0,29.80,SE,136,0.0,1.0,96,0.00,,,0.02,weatherlink.com 1.10,2013-06-27 18:42:00,
2013-06-27 14:57:00,68.2,67.0,29.79,SE,135,1.0,1.0,96,0.00,,,0.02,weatherlink.com 1.10,2013-06-27 18:57:00,
2013-06-27 15:12:00,68.7,67.0,29.79,SSE,158,0.0,0.0,95,0.00,,,0.02,weatherlink.com 1.10,2013-06-27 19:12:00,
2013-06-27 15:27:00,68.6,67.0,29.79,SE,126,0.0,1.0,95,0.00,,,0.02,weatherlink.com 1.10,2013-06-27 19:27:00,
2013-06-27 15:42:00,68.3,67.0,29.78,SE,126,0.0,1.0,95,0.00,,,0.02,weatherlink.com 1.10,2013-06-27 19:42:00,
2013-06-27 15:57:00,68.0,67.0,29.78,ESE,108,0.0,1.0,96,0.00,,,0.02,weatherlink.com 1.10,2013-06-27 19:57:00,
2013-06-27 16:12:00,68.3,67.0,29.78,ESE,108,0.0,1.0,95,0.00,,,0.02,weatherlink.com 1.10,2013-06-27 20:12:00,
2013-06-27 16:27:00,68.4,67.0,29.77,ESE,108,1.0,1.0,95,0.00,,,0.02,weatherlink.com 1.10,2013-06-27 20:27:00,
2013-06-27 16:42:00,68.3,67.0,29.76,ESE,108,1.0,1.0,95,0.00,,,0.02,weatherlink.com 1.10,2013-06-27 20:42:00,
2013-06-27 16:57:00,68.3,67.0,29.76,ESE,107,1.0,1.0,95,0.00,,,0.02,weatherlink.com 1.10,2013-06-27 20:57:00,
2013-06-27 17:12:00,67.8,67.0,29.76,East,96,0.0,1.0,96,0.00,,,0.02,weatherlink.com 1.10,2013-06-27 21:12:00,
2013-06-27 17:27:00,67.9,67.0,29.76,SE,129,0.0,1.0,96,0.00,,,0.02,weatherlink.com 1.10,2013-06-27 21:27:00,
2013-06-27 17:42:00,67.5,66.0,29.76,SE,143,1.0,1.0,96,0.00,,,0.02,weatherlink.com 1.10,2013-06-27 21:42:00,
2013-06-27 17:57:00,67.2,66.0,29.76,SSE,155,0.0,2.0,96,0.00,,,0.02,weatherlink.com 1.10,2013-06-27 21:57:00,
2013-06-27 18:12:00,67.0,66.0,29.76,SSE,158,0.0,1.0,96,0.00,,,0.02,weatherlink.com 1.10,2013-06-27 22:12:00,
2013-06-27 18:27:00,66.6,66.0,29.76,SE,138,1.0,1.0,96,0.00,,,0.02,weatherlink.com 1.10,2013-06-27 22:27:00,
2013-06-27 18:42:00,66.2,65.0,29.77,SE,131,1.0,1.0,97,0.00,,,0.02,weatherlink.com 1.10,2013-06-27 22:42:00,
2013-06-27 18:58:00,65.9,65.0,29.76,SE,127,0.0,1.0,97,0.00,,,0.00,weatherlink.com 1.10,2013-06-27 22:58:00,
2013-06-27 19:28:00,65.1,64.0,29.75,SE,130,0.0,1.0,97,0.00,,,0.00,weatherlink.com 1.10,2013-06-27 23:28:00,
2013-06-27 19:43:00,64.8,64.0,29.76,SE,145,0.0,1.0,97,0.00,,,0.00,weatherlink.com 1.10,2013-06-27 23:43:00,
2013-06-27 19:58:00,64.4,64.0,29.76,SE,127,0.0,1.0,97,0.00,,,0.00,weatherlink.com 1.10,2013-06-27 23:58:00,
2013-06-27 20:13:00,64.1,64.0,29.76,SE,127,1.0,1.0,98,0.00,,,0.00,weatherlink.com 1.10,2013-06-28 00:13:00,
2013-06-27 20:28:00,63.8,63.0,29.76,SE,127,0.0,1.0,98,0.00,,,0.00,weatherlink.com 1.10,2013-06-28 00:28:00,
2013-06-27 20:43:00,63.5,63.0,29.77,SE,138,0.0,1.0,98,0.00,,,0.00,weatherlink.com 1.10,2013-06-28 00:43:00,
2013-06-27 20:58:00,63.3,63.0,29.77,SE,138,0.0,1.0,98,0.00,,,0.00,weatherlink.com 1.10,2013-06-28 00:58:00,
2013-06-27 21:28:00,62.8,62.0,29.78,East,93,1.0,1.0,98,0.00,,,0.00,weatherlink.com 1.10,2013-06-28 01:28:00,
2013-06-27 22:28:00,61.0,61.0,29.77,ESE,109,1.0,2.0,98,0.00,,,0.00,weatherlink.com 1.10,2013-06-28 02:28:00,
2013-06-27 22:43:00,60.6,60.0,29.77,ESE,102,1.0,2.0,98,0.00,,,0.00,weatherlink.com 1.10,2013-06-28 02:43:00,
2013-06-27 22:58:00,60.5,60.0,29.76,ESE,107,1.0,2.0,99,0.00,,,0.00,weatherlink.com 1.10,2013-06-28 02:58:00,
2013-06-27 23:28:00,60.2,60.0,29.75,ESE,111,1.0,2.0,99,0.00,,,0.00,weatherlink.com 1.10,2013-06-28 03:28:00,
2013-06-27 23:43:00,60.1,60.0,29.75,ESE,122,1.0,2.0,99,0.00,,,0.00,weatherlink.com 1.10,2013-06-28 03:43:00,
2013-06-27 23:58:00,60.0,60.0,29.74,East,98,0.0,2.0,99,0.00,,,0.00,weatherlink.com 1.10,2013-06-28 03:58:00,